This demonstration page uses our WeatherBlox Daily Observations layout. Learn more.

Hourly Observations for December 14, 2015

Temp ( °F °C ) Dew Point ( °F °C ) Humidity (%) Winds ( mph kmh ) Pressure ( in mb ) Visibility ( mi km ) Precip ( " mm )
12:15 am 00:15 Cloudy with Light Rain 34 1.1 32 0.1 93 93 N 18 30 29.47 998 7 11.26538 0.02 0.508
12:35 am 00:35 Cloudy with Light Rain 34 1.1 32 0.1 93 93 N 17 28 29.47 998 10 16.0934 0.02 0.508
12:55 am 00:55 Cloudy with Light Rain 34 1.1 32 0 92 92 N 17 28 29.47 998 7 11.26538 0.03 0.762
1:15 am 01:15 Cloudy with Rain 34 1.3 33 0.3 93 93 N 16 26 29.47 998 10 16.0934 0 0
1:35 am 01:35 Cloudy with Drizzle 34 1.3 32 0.2 92 92 N 18 30 29.47 998 10 16.0934 0 0
1:55 am 01:55 Cloudy with Drizzle 34 1.3 32 0.2 92 92 N 15 24 29.47 998 10 16.0934 0 0
2:15 am 02:15 Cloudy 34 1.3 32 0.1 92 92 N 16 26 29.47 998 10 16.0934 0 0
2:35 am 02:35 Cloudy 34 1.2 32 0 92 92 N 15 24 29.47 998 10 16.0934 0 0
2:55 am 02:55 Cloudy 34 1.1 32 0 92 92 NNW 16 26 29.47 998 10 16.0934 0 0
3:15 am 03:15 Cloudy 34 1 32 0 93 93 NNW 17 28 29.47 998 10 16.0934 0 0
3:35 am 03:35 Cloudy 34 1 32 0 93 93 NNW 15 24 29.47 998 10 16.0934 0 0
3:55 am 03:55 Cloudy 34 1.1 32 0 92 92 NNW 14 22 29.47 998 10 16.0934 0 0
4:15 am 04:15 Cloudy 34 1 32 -0.1 92 92 NNW 15 24 29.47 998 10 16.0934 0 0
4:35 am 04:35 Cloudy 34 1 32 -0.2 92 92 NNW 15 24 29.5 999 10 16.0934 0 0
4:55 am 04:55 Cloudy 33 0.7 31 -0.3 93 93 NNW 15 24 29.5 999 10 16.0934 0 0
5:15 am 05:15 Cloudy 33 0.7 31 -0.3 93 93 NNW 14 22 29.5 999 10 16.0934 0 0
5:35 am 05:35 Cloudy 33 0.7 31 -0.5 92 92 NW 13 20 29.5 999 10 16.0934 0 0
5:55 am 05:55 Cloudy 33 0.8 31 -0.5 91 91 NW 14 22 29.53 1000 10 16.0934 0 0
6:15 am 06:15 Cloudy 33 0.6 31 -0.6 92 92 NW 17 28 29.53 1000 10 16.0934 0 0
6:35 am 06:35 Partly Cloudy 33 0.5 31 -0.8 91 91 NW 18 30 29.53 1000 10 16.0934 0 0
6:55 am 06:55 Mostly Cloudy 33 0.6 31 -0.6 92 92 NW 15 24 29.53 1000 10 16.0934 0 0
7:15 am 07:15 Mostly Cloudy 33 0.3 30 -1.1 90 90 NNW 15 24 29.56 1001 10 16.0934 0 0
7:35 am 07:35 Partly Cloudy 32 0 30 -1.2 92 92 NW 14 22 29.56 1001 10 16.0934 0 0
7:55 am 07:55 Sunny 32 0 30 -1 93 93 NW 13 20 29.56 1001 10 16.0934 0 0
8:15 am 08:15 Mostly Cloudy 32 0.1 30 -1 92 92 NW 13 20 29.59 1002 10 16.0934 0 0
8:35 am 08:35 Cloudy 32 0 30 -1.1 92 92 NNW 14 22 29.59 1002 10 16.0934 0 0
8:55 am 08:55 Cloudy 32 0.1 30 -1.1 92 92 NNW 15 24 29.59 1002 10 16.0934 0 0
9:15 am 09:15 Cloudy 32 0.1 30 -1.1 92 92 NNW 15 24 29.59 1002 10 16.0934 0 0
9:35 am 09:35 Mostly Cloudy 33 0.5 30 -0.9 90 90 NNW 13 20 29.62 1003 10 16.0934 0 0
9:55 am 09:55 Partly Cloudy 33 0.8 31 -0.8 89 89 NNW 14 22 29.62 1003 10 16.0934 0 0
10:15 am 10:15 Partly Cloudy 35 1.5 32 -0.2 89 89 NW 12 19 29.59 1002 10 16.0934 0 0
10:35 am 10:35 Mostly Cloudy 35 1.6 32 -0.1 89 89 NW 12 19 29.62 1003 10 16.0934 0 0
10:55 am 10:55 Mostly Cloudy 35 1.7 31 -0.3 87 87 NNW 10 17 29.62 1003 10 16.0934 0 0
11:15 am 11:15 Partly Cloudy 36 2.3 31 -0.4 83 83 NW 13 20 29.62 1003 10 16.0934 0 0
11:35 am 11:35 Partly Cloudy 37 2.9 32 0.1 82 82 NW 14 22 29.62 1003 10 16.0934 0 0
11:55 am 11:55 Partly Cloudy 38 3.5 33 0.4 80 80 NW 13 20 29.62 1003 10 16.0934 0 0
12:15 pm 12:15 Sunny 40 4.2 33 0.8 79 79 NNW 10 17 29.62 1003 10 16.0934 0 0
12:35 pm 12:35 Sunny 40 4.5 33 0.5 76 76 NNW 10 17 29.62 1003 10 16.0934 0 0
12:55 pm 12:55 Sunny 41 5 34 0.9 75 75 NW 8 13 29.62 1003 10 16.0934 0 0
1:15 pm 13:15 Sunny 41 5.2 33 0.7 73 73 WNW 10 17 29.62 1003 10 16.0934 0 0
1:35 pm 13:35 Sunny 42 5.5 33 0.7 72 72 NW 9 15 29.62 1003 10 16.0934 0 0
1:55 pm 13:55 Sunny 43 6.2 34 1 70 70 NW 10 17 29.62 1003 10 16.0934 0 0
2:15 pm 14:15 Sunny 43 6.1 33 0.5 68 68 NNW 9 15 29.62 1003 10 16.0934 0 0
2:35 pm 14:35 Sunny 44 6.5 33 0.7 67 67 NNW 8 13 29.62 1003 10 16.0934 0 0
2:55 pm 14:55 Sunny 44 6.5 33 0.4 65 65 N 8 13 29.62 1003 10 16.0934 0 0
3:15 pm 15:15 Sunny 44 6.5 33 0.7 67 67 NNE 8 13 29.62 1003 10 16.0934 0 0
3:35 pm 15:35 Sunny 43 6.1 33 0.6 68 68 NNE 9 15 29.62 1003 10 16.0934 0 0
3:55 pm 15:55 Sunny 42 5.7 33 0.4 69 69 NNE 9 15 29.62 1003 10 16.0934 0 0
4:15 pm 16:15 Sunny 41 5 32 0 70 70 NE 9 15 29.65 1004 10 16.0934 0 0
4:35 pm 16:35 Sunny 39 4.1 32 0 75 75 NE 7 11 29.68 1005 10 16.0934 0 0
4:55 pm 16:55 Sunny 37 3 31 -0.4 79 79 NE 7 11 29.68 1005 10 16.0934 0 0
5:15 pm 17:15 Clear 35 1.5 31 -0.6 86 86 ENE 7 11 29.71 1006 10 16.0934 0 0
5:35 pm 17:35 Clear 33 0.5 31 -0.8 91 91 E 7 11 29.71 1006 10 16.0934 0 0
5:55 pm 17:55 Clear 32 0.1 30 -1.1 92 92 ENE 10 17 29.71 1006 10 16.0934 0 0
6:15 pm 18:15 Clear 32 0 30 -1 93 93 E 10 17 29.71 1006 10 16.0934 0 0
6:35 pm 18:35 Clear 32 -0.2 30 -1.3 92 92 ENE 9 15 29.71 1006 10 16.0934 0 0
6:55 pm 18:55 Mostly Cloudy 32 0 30 -1 93 93 ENE 12 19 29.71 1006 10 16.0934 0 0
7:15 pm 19:15 Cloudy 32 0 30 -0.9 94 94 ENE 13 20 29.71 1006 10 16.0934 0 0
7:35 pm 19:35 Cloudy 32 0 31 -0.8 94 94 ENE 10 17 29.71 1006 10 16.0934 0 0
7:55 pm 19:55 Cloudy 32 -0.1 30 -1 94 94 ENE 14 22 29.74 1007 10 16.0934 0 0
8:15 pm 20:15 Cloudy 31 -0.5 30 -1.2 95 95 ENE 14 22 29.74 1007 7 11.26538 0 0
8:35 pm 20:35 Cloudy with Mist and Fog 31 -0.5 30 -1.1 96 96 E 10 17 29.74 1007 1.75 2.816345 0 0
8:55 pm 20:55 Cloudy with Mist and Fog 31 -0.7 30 -1.3 96 96 ENE 13 20 29.8 1009 0.75 1.207005 0 0
9:15 pm 21:15 Cloudy with Freezing Fog 31 -0.8 29 -1.4 96 96 E 12 19 29.8 1009 0.5 0.80467 0 0
9:35 pm 21:35 Cloudy with Freezing Fog 30 -1 29 -1.5 96 96 E 9 15 29.83 1010 0.25 0.402335 0 0
9:55 pm 21:55 Cloudy with Freezing Fog 30 -1 29 -1.5 96 96 E 9 15 29.83 1010 0.5 0.80467 0 0
10:15 pm 22:15 Cloudy with Mist and Fog 30 -1 29 -1.5 96 96 E 6 9 29.83 1010 1.5 2.41401 0 0
10:35 pm 22:35 Cloudy with Mist and Fog 31 -0.8 30 -1.3 96 96 ENE 10 17 29.83 1010 1.75 2.816345 0 0
10:55 pm 22:55 Cloudy with Mist and Fog 30 -1 29 -1.4 97 97 E 9 15 29.83 1010 4 6.43736 0 0
11:15 pm 23:15 Cloudy with Mist and Fog 30 -1 29 -1.5 96 96 E 8 13 29.83 1010 2.5 4.02335 0 0
11:35 pm 23:35 Cloudy with Mist and Fog 31 -0.7 30 -1.1 97 97 E 12 19 29.83 1010 2 3.21868 0 0
11:55 pm 23:55 Cloudy with Mist and Fog 31 -0.8 30 -1.2 97 97 E 9 15 29.83 1010 3 4.82802 0 0

Powered by AerisWeather